Regional Weather Roundup
Issued by NWS Wakefield, VA

Home | Current Version | Previous Version | Text Only | Print | Product List | Glossary Off
Versions: 1 2 3 4 5 6 7 8 9 10 11 12 13 14 15 16 17 18 19 20 21 22 23 24 25 26 27 28 29 30 31 32 33 34 35 36 37 38 39 40 41 42 43 44 45 46 47 48 49 50

000
ASUS41 KAKQ 142215
RWRAKQ

REGIONAL WEATHER ROUNDUP
NATIONAL WEATHER SERVICE WAKEFIELD VA
500 PM EST THU DEC 14 2017

Note: "fair" indicates few or no clouds below 12,000 feet with no
significant weather and/or obstructions to visibility. * = Denotes
station may not report precipitation (e.g., rain,snow,etc.),
thunder or fog.

VAZ042-051-052>054-056-142300-
NORTHERN VIRGINIA

CITY           SKY/WX    TMP DP  RH WIND       PRES   REMARKS
WASH NATIONAL  MOCLDY    37  17  44 N13       29.99R
DULLES         MOCLDY    34  17  50 NW12      29.98R
FORT BELVOIR   CLOUDY    38  16  40 NW13      29.98R
QUANTICO       PTCLDY    40  18  41 N13G20    29.99
FREDERICKSBRG* CLEAR     39  20  46 N5        29.96R
STAFFORD*      CLEAR     38  18  42 N5        30.00R
WARRENTON      PTCLDY    38  14  37 N6G12     29.96R
CULPEPER*      PTCLDY    37  16  42 N5        29.97R
MANASSAS*      CLOUDY    36  18  48 N12       29.99R
LEESBURG*      PTCLDY    34  21  60 N10G18    29.98R
WINCHESTER     PTCLDY    32  18  55 NW8       29.97R
FRONT ROYAL*   CLOUDY    32  19  59 N6        29.95R
LURAY*         MOCLDY    36  21  55 NW7       29.95R
$$

VAZ048-049-060>072-079>083-142300-
CENTRAL AND SOUTH CENTRAL VIRGINIA

CITY           SKY/WX    TMP DP  RH WIND       PRES   REMARKS
RICHMOND       MOCLDY    43  23  45 NE13      29.95R
CHESTERFIELD*  NOT AVBL
PETERSBURG*    PTCLDY    45  25  45 CALM      29.92R
HANOVER        PTCLDY    40  21  46 VRB3      29.96R
TAPPAHANNOCK*  PTCLDY    38  22  51 NE3       29.97R
QUINTON*       FAIR      41  24  49 N3        29.94R
CHARLOTTSVILLE CLEAR     40  21  46 N7        29.93R
GORDONSVILLE*  CLEAR     39  21  48 CALM      29.94R
ORANGE*        PTCLDY    36  19  51 CALM      29.94R
LOUISA*        PTCLDY    36  22  57 N5        29.98R
BUMPASS*       FAIR      35  21  56 E3        29.95R
FARMVILLE*     CLOUDY    45  26  45 N3        29.92R
CREWE*         FAIR      46  22  39 CALM      29.92R
FORT PICKETT*  NOT AVBL
CHASE CITY*    FAIR      46  26  44 NW3       29.91R
CLARKSVILLE*   FAIR      46  28  49 CALM      29.91R
SOUTH HILL*    PTCLDY    45  30  54 CALM      29.96R
LAWRENCEVILLE* FAIR      48  27  44 CALM      29.91R
EMPORIA*       PTCLDY    45  32  61 CALM      29.93R
$$

VAZ088>098-142300-
SOUTHEAST VIRGINIA

CITY           SKY/WX    TMP DP  RH WIND       PRES   REMARKS
NORFOLK        CLEAR     43  32  65 NE17      29.93R
VIRGINIA BEACH PTCLDY    42  28  57 N12       29.93R
NORFOLK NAVAL  PTCLDY    43  31  62 NE17G23   29.95R
WEST POINT*    PTCLDY   N/A N/A N/A N6        29.97R
SALUDA*        FAIR      40  24  52 N7        29.96R
NEWPORT NEWS   CLEAR     43  26  51 NE8       29.93R
LANGLEY AFB    MOCLDY    42  32  68 NE13      29.94R
FORT EUSTIS    MOCLDY    46  24  42 CALM      29.90R
WILLIAMSBURG*  CLEAR     45  28  53 NE6       29.95R
HR EXEC AP*    FAIR      43  29  57 NE9       29.94R
FRANKLIN*      CLEAR     46  28  49 N3        29.93R
US460-WAKEFLD  CLEAR     44  27  51 NE5       29.92R
$$

VAZ020-022-025-037-045-142300-
WEST CENTRAL AND SOUTHWEST VIRGINIA

CITY           SKY/WX    TMP DP  RH WIND       PRES   REMARKS
STAUNTON*      CLEAR     36  19  50 N7        29.94R
WAYNESBORO*    PTCLDY    36  18  48 N5        29.91R
HOT SPRINGS VA CLOUDY    24  16  70 W12G18    29.83R WCI  13
LYNCHBURG      CLOUDY    41  19  41 NW6       29.93R
DANVILLE       CLOUDY    47  27  45 N3        29.92R
SOUTH BOSTON*  FAIR      46  24  40 N7        29.92R
MARTINSVILLE   CLOUDY    45  24  44 CALM      29.94R
ROANOKE        CLOUDY    39  21  48 N9        29.96R
BLACKSBURG     PTCLDY    35  23  61 NW8       29.94R
DUBLIN*        CLOUDY    37  24  59 NW8       29.93R
MARION*        CLOUDY    37  23  56 W5        29.92R
HILLSVILLE*    PTCLDY    35  25  66 N5        29.87R
RICHLANDS*     MOCLDY    32  23  70 NW5       29.90R
WISE*          CLOUDY    32  27  80 CALM      29.91S
ABINGDON*      PTCLDY    41  27  57 NW3       29.90R
$$

MDZ021>025-VAZ099-100-142300-
SOUTHERN MARYLAND AND THE DELMARVA PENINSULA

CITY           SKY/WX    TMP DP  RH WIND       PRES   REMARKS
PATUXENT RIVER MOCLDY    38  18  44 NW13      29.96R
BAY BRIDGE APT CLEAR     36  18  48 NW12      29.98R
LEONARDTOWN    CLEAR     36  19  51 N3        29.97R
DOVER          PTCLDY    31  20  62 NW7       29.97R
GEORGETOWN     PTCLDY    36  17  46 VRB3      29.98R
EASTON         PTCLDY    37  16  41 NW12      30.01R
CAMBRIDGE      CLEAR     37  18  44 NW8       29.98R
SALISBURY      CLEAR     35  19  52 N6        29.97R
OCEAN CITY     CLEAR     35  20  54 NW9       29.97R
WALLOPS ISLAND PTCLDY    38  21  50 N7        29.97R
ACCOMACK*      PTCLDY    38  25  59 N9        29.97R
$$

NCZ012>017-030>032-142300-
NORTH CENTRAL AND EASTERN NORTH CAROLINA

CITY           SKY/WX    TMP DP  RH WIND       PRES   REMARKS
ROANOKE RAPIDS FAIR      50  30  46 CALM      29.91R
RALEIGH        PTCLDY    53  23  31 NW5       29.90R
ELIZABETH CITY CLEAR     46  35  65 NE13      29.93R
AHOSKIE*       CLOUDY    50  29  45 CALM      29.91R
EDENTON*       CLEAR     52  32  46 CALM      29.91R
CURRITUCK*     CLEAR     46  32  59 NE8       29.92R
KILL DEVIL HLS CLEAR     47  34  60 NE5       29.90R
MANTEO         CLEAR     47  35  63 NE10      29.92R
CAPE HATTERAS  CLEAR     45  37  73 W5        29.91R
TARBORO*       NOT AVBL
GOLDSBORO      CLEAR     55  26  32 NW3       29.89R
WASHINGTON     CLEAR     53  27  36 CALM      29.91R
GREENVILLE     CLEAR     54  27  35 CALM      29.92R
NEW BERN       CLEAR     47  35  63 CALM      29.92R
WILMINGTON     CLEAR     53  32  44 CALM      29.90R
$$

VAZ048-142300-
ELSEWHERE

CITY           SKY/WX    TMP DP  RH WIND       PRES   REMARKS
HARRISBURG PA  CLEAR     29  12  49 NW10      29.98R WCI  20
BALTIMORE      MOCLDY    34  15  46 NW12      29.98R
ANNAPOLIS      PTCLDY    36  19  50 VRB5      29.98R
ANDREWS AFB    MOCLDY    36  15  43 NW13      29.96R
PHILADELPHIA   PTCLDY    32  11  41 NW12      29.97R WCI  23
HENDERSON NC   CLEAR     47  24  40 CALM      29.90R
GREENSBORO     MOCLDY    49  25  39 N7        29.88R
ROCKY MOUNT    CLEAR     49  29  46 N5        29.90R
$$

VAZ100-142300-
MARINE

STATION/POSITION TIME  TEMP    WIND        PRES    WAVE   SWELL
                       AIR SEA DIR/SP/G            HT/PER HT/PER
                 (UTC) (F)     (DEG/KT/KT) (MB)    (FT/S) (FT/S)
64NM E OF VA BCH 2050   49 61  350/ 19/ 23 1012.0    5/ 5   2/ 9
DIAMOND SHLS NC  2040   56 74  300/ 14/ 17 1012.1
$$



USA.gov is the U.S. government's official web portal to all federal, state and local government web resources and services.